Willow Run Airport Detroit US
ICAO: KYIP
IATA: YIP
Category: Medium
Scheduled Services: No

Elevation: 716 ft
TransAlt. 18000 ft.

Airport Communications:
DETROIT APP/DEP:118.95
ASOS:132.35
ATIS:127.425
GND:121.75
TWR:125.275

KYIP Zoom In..

If you have problems with the map follow the link
https://www.worldairports.se/pages/airport.php?
ICAO=KYIP

Runways:

(A) RW 05L length 5996 ft width 160 ft
---- / hdg 53

(B) RW 05R length 7543 ft width 160 ft
ILS 109.50 / hdg 53

(C) RW 09 length 7292 ft width 160 ft
---- / hdg 95

(D) RW 14 length 6312 ft width 160 ft
---- / hdg 142

(E) RW 23L length 7543 ft width 160 ft
ILS 109.50 / hdg 233

(F) RW 23R length 5996 ft width 160 ft
---- / hdg 233

(G) RW 27 length 7292 ft width 160 ft
---- / hdg 275

(H) RW 32 length 6312 ft width 160 ft
---- / hdg 322

Location; KYIP
Day. 16 / Time. 01.53 Zulu
* Altimeter: 30.13
* Temperature: -04° c. -24.8°f.
* Wind from: 160° Speed 03 kn.
Dewpoint: -08° c.
Visibility: 10 Statute Miles.
Clouds: Clear (automated report).

KYIP 160153Z 16003KT 10SM CLR M04/M08 A3013 RMK AO2 SLP211 T10441083 $


Wind From 160°
Speed 03 kn.

 
 
jpsmedia worldairports.se 2019   terms of use